Time,TemperatureF,DewpointF,PressureIn,WindDirection,WindDirectionDegrees,WindSpeedMPH,WindSpeedGustMPH,Humidity,HourlyPrecipIn,Conditions,Clouds,dailyrainin,SoftwareType,DateUTC
2013-07-24 00:09:00,57.9,5.7,30.06,East,83,3.0,6.9,12,0.00,,,-99.99,FreeWX 2.04,2013-07-24 06:09:00,
2013-07-24 00:19:00,57.6,5.4,30.06,East,94,4.0,6.7,12,0.00,,,-99.99,FreeWX 2.04,2013-07-24 06:19:00,
2013-07-24 00:29:00,57.2,5.0,30.06,East,96,4.0,7.4,12,0.00,,,-99.99,FreeWX 2.04,2013-07-24 06:29:00,
2013-07-24 00:39:00,57.0,5.0,30.06,ESE,103,3.0,7.4,12,0.00,,,-99.99,FreeWX 2.04,2013-07-24 06:39:00,
2013-07-24 00:49:00,57.0,5.0,30.06,East,90,3.0,6.3,12,0.00,,,-99.99,FreeWX 2.04,2013-07-24 06:49:00,
2013-07-24 00:59:00,56.8,4.8,30.06,East,100,4.0,7.8,12,0.00,,,-99.99,FreeWX 2.04,2013-07-24 06:59:00,
2013-07-24 01:09:00,56.7,4.6,30.06,East,96,3.0,7.4,12,0.00,,,-99.99,FreeWX 2.04,2013-07-24 07:09:00,
2013-07-24 01:19:00,56.3,4.5,30.06,East,87,3.0,7.4,12,0.00,,,-99.99,FreeWX 2.04,2013-07-24 07:19:00,
2013-07-24 01:29:00,56.5,4.5,30.06,East,88,3.0,7.4,12,0.00,,,-99.99,FreeWX 2.04,2013-07-24 07:29:00,
2013-07-24 01:39:00,56.5,4.5,30.06,East,80,3.0,6.3,12,0.00,,,-99.99,FreeWX 2.04,2013-07-24 07:39:00,
2013-07-24 01:49:00,57.2,5.0,30.06,East,99,4.0,7.8,12,0.00,,,-99.99,FreeWX 2.04,2013-07-24 07:49:00,
2013-07-24 01:59:00,57.9,5.7,30.06,East,100,3.0,7.8,12,0.00,,,-99.99,FreeWX 2.04,2013-07-24 07:59:00,
2013-07-24 02:09:00,57.2,5.0,30.06,East,91,3.0,6.3,12,0.00,,,-99.99,FreeWX 2.04,2013-07-24 08:09:00,
2013-07-24 02:19:00,57.0,5.0,30.06,East,94,3.0,7.4,12,0.00,,,-99.99,FreeWX 2.04,2013-07-24 08:19:00,
2013-07-24 02:29:00,57.2,5.0,30.06,East,98,3.0,7.4,12,0.00,,,-99.99,FreeWX 2.04,2013-07-24 08:29:00,
2013-07-24 02:39:00,57.4,5.2,30.06,East,101,4.0,9.2,12,0.00,,,-99.99,FreeWX 2.04,2013-07-24 08:39:00,
2013-07-24 02:49:00,56.5,4.5,30.06,East,101,3.0,8.7,12,0.00,,,-99.99,FreeWX 2.04,2013-07-24 08:49:00,
2013-07-24 02:59:00,56.7,4.6,30.06,East,97,3.0,7.4,12,0.00,,,-99.99,FreeWX 2.04,2013-07-24 08:59:00,
2013-07-24 03:09:00,56.5,4.5,30.06,East,99,3.0,6.9,12,0.00,,,-99.99,FreeWX 2.04,2013-07-24 09:09:00,
2013-07-24 03:19:00,57.2,5.0,30.06,ESE,108,5.0,8.7,12,0.00,,,-99.99,FreeWX 2.04,2013-07-24 09:19:00,
2013-07-24 03:29:00,58.1,5.7,30.06,East,99,4.0,8.7,12,0.00,,,-99.99,FreeWX 2.04,2013-07-24 09:29:00,
2013-07-24 03:39:00,56.8,4.8,30.06,East,86,2.0,4.9,12,0.00,,,-99.99,FreeWX 2.04,2013-07-24 09:39:00,
2013-07-24 03:49:00,57.2,5.0,30.06,East,93,3.0,7.8,12,0.00,,,-99.99,FreeWX 2.04,2013-07-24 09:49:00,
2013-07-24 03:59:00,57.2,5.0,30.06,East,101,2.0,6.7,12,0.00,,,-99.99,FreeWX 2.04,2013-07-24 09:59:00,
2013-07-24 04:09:00,57.4,5.2,30.06,ESE,102,3.0,8.7,12,0.00,,,-99.99,FreeWX 2.04,2013-07-24 10:09:00,
2013-07-24 04:19:00,56.7,4.6,30.06,East,96,2.0,5.8,12,0.00,,,-99.99,FreeWX 2.04,2013-07-24 10:19:00,
2013-07-24 04:29:00,56.7,4.6,30.06,East,90,4.0,7.4,12,0.00,,,-99.99,FreeWX 2.04,2013-07-24 10:29:00,
2013-07-24 04:39:00,55.8,3.9,30.06,East,82,2.0,5.4,12,0.00,,,-99.99,FreeWX 2.04,2013-07-24 10:39:00,
2013-07-24 04:49:00,55.9,9.0,30.06,East,80,2.0,6.7,15,0.00,,,-99.99,FreeWX 2.04,2013-07-24 10:49:00,
2013-07-24 04:59:00,55.6,8.8,30.06,ENE,77,1.0,7.4,15,0.00,,,-99.99,FreeWX 2.04,2013-07-24 10:59:00,
2013-07-24 05:09:00,55.4,8.6,30.06,East,82,1.0,6.7,15,0.00,,,-99.99,FreeWX 2.04,2013-07-24 11:09:00,
2013-07-24 05:19:00,55.9,4.1,30.06,East,86,1.0,7.8,12,0.00,,,-99.99,FreeWX 2.04,2013-07-24 11:19:00,
2013-07-24 05:29:00,56.3,7.7,30.06,East,100,2.0,11.0,14,0.00,,,-99.99,FreeWX 2.04,2013-07-24 11:29:00,
2013-07-24 05:39:00,56.8,4.8,30.06,East,91,3.0,9.2,12,0.00,,,-99.99,FreeWX 2.04,2013-07-24 11:39:00,
2013-07-24 05:49:00,58.5,6.1,30.06,ESE,104,4.0,9.6,12,0.00,,,-99.99,FreeWX 2.04,2013-07-24 11:49:00,
2013-07-24 05:59:00,56.7,4.6,30.06,East,93,4.0,9.6,12,0.00,,,-99.99,FreeWX 2.04,2013-07-24 11:59:00,
2013-07-24 06:09:00,55.6,8.8,30.06,East,86,3.0,8.3,15,0.00,,,-99.99,FreeWX 2.04,2013-07-24 12:09:00,
2013-07-24 06:19:00,55.4,8.6,30.06,East,83,2.0,5.8,15,0.00,,,-99.99,FreeWX 2.04,2013-07-24 12:19:00,
2013-07-24 06:29:00,55.0,8.2,30.06,East,84,2.0,6.9,15,0.00,,,-99.99,FreeWX 2.04,2013-07-24 12:29:00,
2013-07-24 06:39:00,55.6,8.8,30.06,East,87,3.0,8.3,15,0.00,,,-99.99,FreeWX 2.04,2013-07-24 12:39:00,
2013-07-24 06:49:00,55.6,8.8,30.06,East,81,2.0,6.9,15,0.00,,,-99.99,FreeWX 2.04,2013-07-24 12:49:00,
2013-07-24 06:59:00,56.8,8.2,30.06,East,86,1.0,6.3,14,0.00,,,-99.99,FreeWX 2.04,2013-07-24 12:59:00,
2013-07-24 07:09:00,58.5,9.5,30.06,East,98,4.0,8.3,14,0.00,,,-99.99,FreeWX 2.04,2013-07-24 13:09:00,
2013-07-24 07:19:00,60.4,11.1,30.06,ESE,120,6.0,9.2,14,0.00,,,-99.99,FreeWX 2.04,2013-07-24 13:19:00,
2013-07-24 07:30:00,61.7,10.4,30.06,ESE,116,5.0,9.6,13,0.00,,,-99.99,FreeWX 2.04,2013-07-24 13:30:00,
2013-07-24 07:40:00,61.7,10.4,30.06,ESE,121,5.0,10.1,13,0.00,,,-99.99,FreeWX 2.04,2013-07-24 13:40:00,
2013-07-24 07:50:00,61.9,10.6,30.06,ESE,106,4.0,9.6,13,0.00,,,-99.99,FreeWX 2.04,2013-07-24 13:50:00,
2013-07-24 08:00:00,62.1,10.6,30.06,East,96,1.0,8.7,13,0.00,,,-99.99,FreeWX 2.04,2013-07-24 14:00:00,
2013-07-24 08:10:00,63.9,12.0,30.06,ESE,121,2.0,7.8,13,0.00,,,-99.99,FreeWX 2.04,2013-07-24 14:10:00,
2013-07-24 08:20:00,64.9,12.9,30.06,SE,125,5.0,8.3,13,0.00,,,-99.99,FreeWX 2.04,2013-07-24 14:20:00,
2013-07-24 08:30:00,66.2,12.0,30.06,SE,128,6.0,9.6,12,0.00,,,-99.99,FreeWX 2.04,2013-07-24 14:30:00,
2013-07-24 08:40:00,65.8,11.8,30.06,SE,127,5.0,7.4,12,0.00,,,-99.99,FreeWX 2.04,2013-07-24 14:40:00,
2013-07-24 08:50:00,66.2,12.0,30.06,ESE,123,4.0,6.9,12,0.00,,,-99.99,FreeWX 2.04,2013-07-24 14:50:00,
2013-07-24 09:00:00,66.6,12.4,30.06,ESE,118,4.0,7.4,12,0.00,,,-99.99,FreeWX 2.04,2013-07-24 15:00:00,
2013-07-24 09:10:00,68.0,13.5,30.06,ESE,119,5.0,8.7,12,0.00,,,-99.99,FreeWX 2.04,2013-07-24 15:10:00,
2013-07-24 09:20:00,69.8,14.9,30.06,ESE,109,3.0,6.7,12,0.00,,,-99.99,FreeWX 2.04,2013-07-24 15:20:00,
2013-07-24 09:30:00,72.1,14.7,30.06,ESE,115,3.0,8.3,11,0.00,,,-99.99,FreeWX 2.04,2013-07-24 15:30:00,
2013-07-24 09:40:00,74.1,16.3,30.06,ESE,119,5.0,9.2,11,0.00,,,-99.99,FreeWX 2.04,2013-07-24 15:40:00,
2013-07-24 09:50:00,73.2,15.6,30.06,ESE,110,4.0,8.7,11,0.00,,,-99.99,FreeWX 2.04,2013-07-24 15:50:00,
2013-07-24 10:00:00,74.7,-99.9,30.06,ESE,117,2.0,6.9,-999,0.00,,,-99.99,FreeWX 2.04,2013-07-24 16:00:00,
2013-07-24 10:10:00,77.7,-99.9,30.06,SE,140,4.0,8.3,-999,0.00,,,-99.99,FreeWX 2.04,2013-07-24 16:10:00,
2013-07-24 10:20:00,79.0,-99.9,30.06,SE,128,5.0,8.7,-999,0.00,,,-99.99,FreeWX 2.04,2013-07-24 16:20:00,
2013-07-24 10:30:00,79.3,-99.9,30.06,SE,135,5.0,10.5,-999,0.00,,,-99.99,FreeWX 2.04,2013-07-24 16:30:00,
2013-07-24 10:40:00,78.6,-99.9,30.06,SE,146,5.0,8.7,-999,0.00,,,-99.99,FreeWX 2.04,2013-07-24 16:40:00,
2013-07-24 10:50:00,79.7,-99.9,30.06,SE,140,4.0,8.7,-999,0.00,,,-99.99,FreeWX 2.04,2013-07-24 16:50:00,
2013-07-24 11:00:00,78.8,-99.9,30.06,SE,129,5.0,9.2,-999,0.00,,,-99.99,FreeWX 2.04,2013-07-24 17:00:00,
2013-07-24 11:10:00,80.4,-99.9,30.06,SE,124,3.0,6.9,-999,0.00,,,-99.99,FreeWX 2.04,2013-07-24 17:10:00,
2013-07-24 11:20:00,79.0,-99.9,30.06,SE,126,2.0,7.4,-999,0.00,,,-99.99,FreeWX 2.04,2013-07-24 17:20:00,
2013-07-24 11:30:00,79.2,-99.9,30.06,ESE,110,2.0,6.7,-999,0.00,,,-99.99,FreeWX 2.04,2013-07-24 17:30:00,
2013-07-24 11:40:00,83.3,-99.9,30.06,SE,126,2.0,7.8,-999,0.00,,,-99.99,FreeWX 2.04,2013-07-24 17:40:00,
2013-07-24 11:50:00,84.0,-99.9,30.06,SE,133,2.0,6.9,-999,0.00,,,-99.99,FreeWX 2.04,2013-07-24 17:50:00,
2013-07-24 12:00:00,83.8,-99.9,30.03,East,93,2.0,7.4,-999,0.00,,,-99.99,FreeWX 2.04,2013-07-24 18:00:00,
2013-07-24 12:10:00,83.8,-99.9,30.03,SE,133,2.0,9.2,-999,0.00,,,-99.99,FreeWX 2.04,2013-07-24 18:10:00,
2013-07-24 12:20:00,82.8,-99.9,30.03,ESE,116,2.0,10.1,-999,0.00,,,-99.99,FreeWX 2.04,2013-07-24 18:20:00,
2013-07-24 12:30:00,81.9,-99.9,30.03,SE,124,2.0,7.8,-999,0.00,,,-99.99,FreeWX 2.04,2013-07-24 18:30:00,
2013-07-24 12:40:00,83.5,-99.9,30.03,SSE,153,2.0,5.8,-999,0.00,,,-99.99,FreeWX 2.04,2013-07-24 18:40:00,
2013-07-24 12:50:00,83.3,-99.9,30.03,South,188,2.0,5.4,-999,0.00,,,-99.99,FreeWX 2.04,2013-07-24 18:50:00,
2013-07-24 13:00:00,84.0,-99.9,30.03,SSE,165,2.0,6.3,-999,0.00,,,-99.99,FreeWX 2.04,2013-07-24 19:00:00,
2013-07-24 13:10:00,83.5,-99.9,30.03,SSE,152,2.0,6.9,-999,0.00,,,-99.99,FreeWX 2.04,2013-07-24 19:10:00,
2013-07-24 13:20:00,83.8,-99.9,30.03,SSE,166,2.0,6.9,-999,0.00,,,-99.99,FreeWX 2.04,2013-07-24 19:20:00,
2013-07-24 13:30:00,84.0,-99.9,30.03,South,174,2.0,8.7,-999,0.00,,,-99.99,FreeWX 2.04,2013-07-24 19:30:00,
2013-07-24 13:40:00,83.5,-99.9,30.03,WSW,243,3.0,6.9,-999,0.00,,,-99.99,FreeWX 2.04,2013-07-24 19:40:00,
2013-07-24 13:50:00,83.5,-99.9,30.03,WSW,258,3.0,9.2,-999,0.00,,,-99.99,FreeWX 2.04,2013-07-24 19:50:00,
2013-07-24 14:00:00,81.9,-99.9,30.03,WNW,294,4.0,8.7,-999,0.00,,,-99.99,FreeWX 2.04,2013-07-24 20:00:00,
2013-07-24 14:10:00,82.0,-99.9,30.03,West,264,2.0,6.7,-999,0.00,,,-99.99,FreeWX 2.04,2013-07-24 20:10:00,
2013-07-24 14:20:00,83.3,-99.9,30.03,WSW,254,3.0,9.2,-999,0.00,,,-99.99,FreeWX 2.04,2013-07-24 20:20:00,
2013-07-24 14:30:00,80.2,-99.9,30.03,NNW,332,6.0,11.6,-999,0.00,,,-99.99,FreeWX 2.04,2013-07-24 20:30:00,
2013-07-24 14:40:00,78.4,-99.9,30.03,NNW,338,6.0,11.0,-999,0.00,,,-99.99,FreeWX 2.04,2013-07-24 20:40:00,
2013-07-24 14:50:00,77.5,-99.9,30.03,North,354,4.0,6.9,-999,0.00,,,-99.99,FreeWX 2.04,2013-07-24 20:50:00,
2013-07-24 15:00:00,76.5,-99.9,30.03,NNW,345,4.0,8.7,-999,0.00,,,-99.99,FreeWX 2.04,2013-07-24 21:00:00,
2013-07-24 15:10:00,77.0,-99.9,30.03,NNW,330,8.0,21.5,-999,0.00,,,-99.99,FreeWX 2.04,2013-07-24 21:10:00,
2013-07-24 15:20:00,75.9,-99.9,30.06,NNE,32,7.0,18.6,-999,0.00,,,-99.99,FreeWX 2.04,2013-07-24 21:20:00,
2013-07-24 15:30:00,76.8,-99.9,30.06,NNE,28,5.0,12.5,-999,0.00,,,-99.99,FreeWX 2.04,2013-07-24 21:30:00,
2013-07-24 15:40:00,76.5,-99.9,30.03,NE,38,3.0,10.5,-999,0.00,,,-99.99,FreeWX 2.04,2013-07-24 21:40:00,
2013-07-24 15:50:00,76.5,-99.9,30.03,ENE,68,2.0,9.6,-999,0.00,,,-99.99,FreeWX 2.04,2013-07-24 21:50:00,
2013-07-24 16:00:00,77.5,-99.9,30.03,SE,140,4.0,9.2,-999,0.00,,,-99.99,FreeWX 2.04,2013-07-24 22:00:00,
2013-07-24 16:10:00,80.8,-99.9,30.03,South,171,3.0,13.9,-999,0.00,,,-99.99,FreeWX 2.04,2013-07-24 22:10:00,
2013-07-24 16:20:00,80.8,-99.9,30.03,SE,139,2.0,8.7,-999,0.00,,,-99.99,FreeWX 2.04,2013-07-24 22:20:00,
2013-07-24 16:30:00,80.2,-99.9,30.03,ESE,110,1.0,5.8,-999,0.00,,,-99.99,FreeWX 2.04,2013-07-24 22:30:00,
2013-07-24 16:40:00,80.2,-99.9,30.03,North,-999,0.0,6.3,-999,0.00,,,-99.99,FreeWX 2.04,2013-07-24 22:40:00,
2013-07-24 16:50:00,82.4,-99.9,30.03,ESE,119,1.0,4.9,-999,0.00,,,-99.99,FreeWX 2.04,2013-07-24 22:50:00,
2013-07-24 17:00:00,82.0,-99.9,30.03,North,-999,0.0,0.0,-999,0.00,,,-99.99,FreeWX 2.04,2013-07-24 23:00:00,
2013-07-24 17:10:00,81.5,-99.9,30.03,North,-999,0.0,4.9,-999,0.00,,,-99.99,FreeWX 2.04,2013-07-24 23:10:00,
2013-07-24 17:20:00,81.0,-99.9,30.03,SSW,199,1.0,5.8,-999,0.00,,,-99.99,FreeWX 2.04,2013-07-24 23:20:00,
2013-07-24 17:30:00,79.2,-99.9,30.03,North,-999,0.0,0.0,-999,0.00,,,-99.99,FreeWX 2.04,2013-07-24 23:30:00,
2013-07-24 17:40:00,77.4,-99.9,30.03,North,-999,0.0,0.0,-999,0.00,,,-99.99,FreeWX 2.04,2013-07-24 23:40:00,
2013-07-24 17:50:00,76.1,-99.9,30.03,North,-999,0.0,0.0,-999,0.00,,,-99.99,FreeWX 2.04,2013-07-24 23:50:00,
2013-07-24 18:00:00,75.9,-99.9,30.03,North,-999,0.0,0.0,-999,0.00,,,-99.99,FreeWX 2.04,2013-07-25 00:00:00,
2013-07-24 18:10:00,74.3,20.3,30.00,North,-999,0.0,0.0,13,0.00,,,-99.99,FreeWX 2.04,2013-07-25 00:10:00,
2013-07-24 18:20:00,73.9,16.2,30.00,North,-999,0.0,0.0,11,0.00,,,-99.99,FreeWX 2.04,2013-07-25 00:20:00,
2013-07-24 18:30:00,73.4,19.6,30.00,North,-999,0.0,0.0,13,0.00,,,-99.99,FreeWX 2.04,2013-07-25 00:30:00,
2013-07-24 18:40:00,72.7,26.8,30.03,North,-999,0.0,3.6,18,0.00,,,-99.99,FreeWX 2.04,2013-07-25 00:40:00,
2013-07-24 18:51:00,72.7,19.0,30.03,North,-999,0.0,3.6,13,0.00,,,-99.99,FreeWX 2.04,2013-07-25 00:51:00,
2013-07-24 19:01:00,71.8,32.0,30.03,North,-999,0.0,3.6,23,0.00,,,-99.99,FreeWX 2.04,2013-07-25 01:01:00,
2013-07-24 19:11:00,70.9,32.4,30.03,North,-999,0.0,0.0,24,0.00,,,-99.99,FreeWX 2.04,2013-07-25 01:11:00,
2013-07-24 19:21:00,69.8,32.4,30.00,SSE,166,1.0,6.3,25,0.00,,,-99.99,FreeWX 2.04,2013-07-25 01:21:00,
2013-07-24 19:31:00,69.4,32.0,30.00,North,-999,0.0,4.0,25,0.00,,,-99.99,FreeWX 2.04,2013-07-25 01:31:00,
2013-07-24 19:41:00,70.0,29.3,30.03,SSE,155,1.0,5.4,22,0.00,,,-99.99,FreeWX 2.04,2013-07-25 01:41:00,
2013-07-24 19:51:00,69.1,29.7,30.03,North,-999,0.0,4.0,23,0.00,,,-99.99,FreeWX 2.04,2013-07-25 01:51:00,
2013-07-24 20:01:00,70.2,18.7,30.03,ESE,120,3.0,6.9,14,0.00,,,-99.99,FreeWX 2.04,2013-07-25 02:01:00,
2013-07-24 20:11:00,73.0,15.4,30.03,North,-999,0.0,4.5,11,0.00,,,-99.99,FreeWX 2.04,2013-07-25 02:11:00,
2013-07-24 20:21:00,72.0,14.5,30.03,South,174,1.0,5.8,11,0.00,,,-99.99,FreeWX 2.04,2013-07-25 02:21:00,
2013-07-24 20:31:00,76.1,-99.9,30.03,SW,217,8.0,18.6,-999,0.00,,,-99.99,FreeWX 2.04,2013-07-25 02:31:00,
2013-07-24 20:41:00,75.2,-99.9,30.00,SSE,162,5.0,13.4,-999,0.00,,,-99.99,FreeWX 2.04,2013-07-25 02:41:00,
2013-07-24 20:51:00,72.9,-99.9,30.00,North,-999,0.0,6.3,-999,0.00,,,-99.99,FreeWX 2.04,2013-07-25 02:51:00,
2013-07-24 21:01:00,69.8,-99.9,30.00,North,-999,0.0,3.6,-999,0.00,,,-99.99,FreeWX 2.04,2013-07-25 03:01:00,
2013-07-24 21:21:00,68.2,-99.9,30.03,North,-999,0.0,4.5,-999,0.00,,,-99.99,FreeWX 2.04,2013-07-25 03:21:00,
2013-07-24 21:42:00,64.8,-99.9,30.03,ESE,109,2.0,5.8,-999,0.00,,,-99.99,FreeWX 2.04,2013-07-25 03:42:00,
2013-07-24 21:52:00,64.4,-99.9,30.03,SE,133,4.0,6.9,-999,0.00,,,-99.99,FreeWX 2.04,2013-07-25 03:52:00,
2013-07-24 22:02:00,64.8,-99.9,30.03,ESE,103,2.0,7.4,-999,0.00,,,-99.99,FreeWX 2.04,2013-07-25 04:02:00,
2013-07-24 22:12:00,63.3,7.9,30.03,North,-999,0.0,3.6,11,0.00,,,-99.99,FreeWX 2.04,2013-07-25 04:12:00,
2013-07-24 22:22:00,62.4,7.2,30.03,ESE,115,4.0,7.4,11,0.00,,,-99.99,FreeWX 2.04,2013-07-25 04:22:00,
2013-07-24 22:32:00,61.9,6.8,30.03,ESE,102,3.0,7.4,11,0.00,,,-99.99,FreeWX 2.04,2013-07-25 04:32:00,
2013-07-24 22:42:00,62.1,7.0,30.03,ESE,107,4.0,6.9,11,0.00,,,-99.99,FreeWX 2.04,2013-07-25 04:42:00,
2013-07-24 22:52:00,61.2,6.3,30.03,East,100,2.0,6.9,11,0.00,,,-99.99,FreeWX 2.04,2013-07-25 04:52:00,
2013-07-24 23:02:00,61.0,6.1,30.03,East,98,3.0,7.4,11,0.00,,,-99.99,FreeWX 2.04,2013-07-25 05:02:00,
2013-07-24 23:12:00,60.8,5.9,30.03,East,99,3.0,6.7,11,0.00,,,-99.99,FreeWX 2.04,2013-07-25 05:12:00,
2013-07-24 23:22:00,61.9,6.8,30.03,East,91,3.0,9.2,11,0.00,,,-99.99,FreeWX 2.04,2013-07-25 05:22:00,
2013-07-24 23:32:00,61.5,6.6,30.03,ESE,105,4.0,9.6,11,0.00,,,-99.99,FreeWX 2.04,2013-07-25 05:32:00,
2013-07-24 23:42:00,60.3,5.5,30.03,SE,133,5.0,7.8,11,0.00,,,-99.99,FreeWX 2.04,2013-07-25 05:42:00,
2013-07-24 23:52:00,59.4,6.8,30.03,ESE,121,5.0,7.4,12,0.00,,,-99.99,FreeWX 2.04,2013-07-25 05:52:00,